• In Czech Republic
  • List of Countries
  • For 7 days
  • Water Temperature
  • Satellite Maps
  • Weather Map
  • Weather Widgets
  • user-avatar
    Login

    Hourly Weather Kamloops

    Today, 16 December, Saturday

    Time Temperature Precipitation Wind Pressure Humidity
    00:00 -1°C° 0.1 mm 1 mps 708 mmHg 96%
    01:00 -1°C° 0.1 mm 1 mps 708 mmHg 96%
    02:00 -2°C° 0.1 mm 1 mps 708 mmHg 96%
    03:00 -2°C° 0.1 mm 1 mps 708 mmHg 96%
    04:00 -2°C° 0.1 mm 1 mps 709 mmHg 96%
    05:00 -3°C° 0 mm 1 mps 709 mmHg 96%
    06:00 -3°C° 0 mm 1 mps 709 mmHg 96%
    07:00 -4°C° 0 mm 1 mps 709 mmHg 96%
    08:00 -3°C° 0 mm 1 mps 709 mmHg 94%
    09:00 -2°C° 0 mm 1 mps 709 mmHg 92%
    10:00 -1°C° 0 mm 1 mps 709 mmHg 91%
    11:00 0°C° 0 mm 1 mps 709 mmHg 89%
    12:00 +1°C° 0 mm 1 mps 708 mmHg 87%
    13:00 +2°C° 0 mm 1 mps 708 mmHg 86%
    14:00 +1°C° 0 mm 1 mps 708 mmHg 88%
    15:00 0°C° 0 mm 1 mps 708 mmHg 91%
    16:00 -1°C° 0 mm 1 mps 707 mmHg 94%
    17:00 -1°C° 0 mm 1 mps 707 mmHg 94%
    18:00 -1°C° 0 mm 1 mps 707 mmHg 94%
    19:00 -4°C° 0 mm 2 mps 707 mmHg 95%
    20:00 -4°C° 0 mm 2 mps 707 mmHg 94%
    21:00 -4°C° 0 mm 2 mps 707 mmHg 94%
    22:00 -4°C° 0 mm 2 mps 706 mmHg 94%
    23:00 -3°C° 0.1 mm 2 mps 706 mmHg 94%

    Tomorrow, 17 December, Sunday

    Time Temperature Precipitation Wind Pressure Humidity
    00:00 -3°C° 0.1 mm 2 mps 706 mmHg 93%
    01:00 -3°C° 0.1 mm 2 mps 706 mmHg 93%
    02:00 -2°C° 0.1 mm 2 mps 705 mmHg 94%
    03:00 0°C° 0.1 mm 1 mps 705 mmHg 94%
    04:00 0°C° 0.1 mm 1 mps 705 mmHg 95%
    05:00 0°C° 0.1 mm 1 mps 704 mmHg 95%
    06:00 0°C° 0.1 mm 1 mps 704 mmHg 95%
    07:00 0°C° 0.1 mm 1 mps 704 mmHg 95%
    08:00 +1°C° 0.1 mm 1 mps 703 mmHg 95%
    09:00 +2°C° 0.1 mm 1 mps 703 mmHg 94%
    10:00 +2°C° 0.1 mm 1 mps 703 mmHg 93%
    11:00 +3°C° 0.1 mm 1 mps 702 mmHg 93%
    12:00 +4°C° 0.1 mm 1 mps 701 mmHg 93%
    13:00 +5°C° 0.1 mm 1 mps 700 mmHg 92%
    14:00 +4°C° 0.3 mm 1 mps 700 mmHg 94%
    15:00 +4°C° 0.3 mm 1 mps 700 mmHg 95%
    16:00 +4°C° 0.3 mm 1 mps 699 mmHg 96%
    17:00 +2°C° 0.7 mm 2 mps 699 mmHg 96%
    18:00 +2°C° 0.7 mm 2 mps 700 mmHg 96%
    19:00 +1°C° 0.7 mm 2 mps 700 mmHg 96%
    20:00 +1°C° 0.5 mm 2 mps 700 mmHg 96%
    21:00 -1°C° 0.5 mm 2 mps 701 mmHg 96%
    22:00 0°C° 0.5 mm 1 mps 701 mmHg 96%
    23:00 0°C° 0.3 mm 1 mps 701 mmHg 96%

    Day after tomorrow, 18 December, Monday

    Time Temperature Precipitation Wind Pressure Humidity
    00:00 0°C° 0.3 mm 1 mps 702 mmHg 96%
    01:00 -1°C° 0.3 mm 1 mps 702 mmHg 96%
    02:00 -1°C° 0.2 mm 1 mps 703 mmHg 96%
    03:00 -1°C° 0.2 mm 1 mps 704 mmHg 96%
    04:00 -1°C° 0.2 mm 1 mps 704 mmHg 96%
    05:00 -1°C° 0.2 mm 1 mps 705 mmHg 96%
    06:00 -1°C° 0.2 mm 1 mps 705 mmHg 96%
    07:00 -1°C° 0.2 mm 1 mps 706 mmHg 96%
    08:00 -1°C° 0.1 mm 1 mps 706 mmHg 95%
    09:00 0°C° 0.1 mm 1 mps 707 mmHg 94%
    10:00 0°C° 0.1 mm 1 mps 707 mmHg 93%
    11:00 +1°C° 0.2 mm 1 mps 707 mmHg 91%
    12:00 +2°C° 0.2 mm 1 mps 707 mmHg 89%
    13:00 +2°C° 0.2 mm 1 mps 707 mmHg 87%
    14:00 +2°C° 0.1 mm 1 mps 707 mmHg 90%
    15:00 0°C° 0.1 mm 0 mps 707 mmHg 92%
    16:00 -1°C° 0.1 mm 0 mps 707 mmHg 94%
    17:00 -1°C° 0.1 mm 0 mps 708 mmHg 95%
    18:00 -2°C° 0.1 mm 0 mps 708 mmHg 95%
    19:00 -2°C° 0.1 mm 0 mps 708 mmHg 95%
    20:00 -2°C° 0.1 mm 1 mps 708 mmHg 95%
    21:00 -2°C° 0.1 mm 1 mps 708 mmHg 95%
    22:00 -2°C° 0.1 mm 1 mps 709 mmHg 95%
    23:00 -2°C° 0.3 mm 1 mps 708 mmHg 95%

    19 December, Tuesday

    Time Temperature Precipitation Wind Pressure Humidity
    00:00 -2°C° 0.3 mm 1 mps 708 mmHg 96%
    01:00 -2°C° 0.3 mm 1 mps 707 mmHg 96%
    02:00 -2°C° 0.8 mm 1 mps 706 mmHg 96%
    03:00 -2°C° 0.8 mm 1 mps 706 mmHg 96%
    04:00 -2°C° 0.8 mm 1 mps 705 mmHg 97%
    05:00 -4°C° 1.3 mm 2 mps 704 mmHg 97%
    06:00 -4°C° 1.3 mm 2 mps 703 mmHg 97%
    07:00 -4°C° 1.3 mm 2 mps 702 mmHg 97%
    08:00 -4°C° 1.6 mm 2 mps 701 mmHg 97%
    09:00 -4°C° 1.6 mm 2 mps 700 mmHg 97%
    10:00 -3°C° 1.6 mm 2 mps 699 mmHg 97%
    11:00 -3°C° 1.8 mm 2 mps 698 mmHg 97%
    12:00 -3°C° 1.8 mm 2 mps 696 mmHg 97%
    13:00 -3°C° 1.8 mm 2 mps 695 mmHg 97%
    14:00 -1°C° 1.7 mm 1 mps 695 mmHg 97%
    15:00 -1°C° 1.7 mm 1 mps 695 mmHg 97%
    16:00 -1°C° 1.7 mm 1 mps 694 mmHg 98%
    17:00 -3°C° 1 mm 2 mps 695 mmHg 97%
    18:00 -3°C° 1 mm 2 mps 695 mmHg 97%
    19:00 -3°C° 1 mm 2 mps 695 mmHg 97%
    20:00 -5°C° 0.4 mm 3 mps 696 mmHg 96%
    21:00 -5°C° 0.4 mm 3 mps 697 mmHg 95%
    22:00 -7°C° 0.4 mm 4 mps 698 mmHg 95%
    23:00 -7°C° 0.1 mm 4 mps 699 mmHg 94%

    20 December, Wednesday

    Time Temperature Precipitation Wind Pressure Humidity
    00:00 -8°C° 0.1 mm 4 mps 699 mmHg 94%
    01:00 -9°C° 0.1 mm 4 mps 700 mmHg 93%
    02:00 -10°C° 0.1 mm 4 mps 701 mmHg 93%
    03:00 -10°C° 0.1 mm 4 mps 703 mmHg 93%
    04:00 -11°C° 0.1 mm 4 mps 704 mmHg 92%
    05:00 -11°C° 0 mm 4 mps 705 mmHg 93%
    06:00 -12°C° 0 mm 3 mps 706 mmHg 93%
    07:00 -13°C° 0 mm 3 mps 708 mmHg 94%
    08:00 -12°C° 0 mm 3 mps 709 mmHg 93%
    09:00 -12°C° 0 mm 3 mps 710 mmHg 92%
    10:00 -10°C° 0 mm 3 mps 711 mmHg 91%
    11:00 -9°C° 0 mm 3 mps 712 mmHg 89%
    12:00 -8°C° 0 mm 3 mps 712 mmHg 88%
    13:00 -7°C° 0 mm 3 mps 712 mmHg 87%
    14:00 -8°C° 0 mm 2 mps 713 mmHg 89%
    15:00 -9°C° 0 mm 2 mps 714 mmHg 91%
    16:00 -9°C° 0 mm 1 mps 714 mmHg 94%
    17:00 -10°C° 0 mm 1 mps 715 mmHg 94%
    18:00 -11°C° 0 mm 1 mps 716 mmHg 95%
    19:00 -12°C° 0 mm 1 mps 717 mmHg 95%
    20:00 -12°C° 0 mm 1 mps 717 mmHg 95%
    21:00 -13°C° 0 mm 1 mps 718 mmHg 95%
    22:00 -13°C° 0 mm 1 mps 718 mmHg 95%
    23:00 -13°C° 0 mm 1 mps 718 mmHg 94%

    21 December, Thursday

    Time Temperature Precipitation Wind Pressure Humidity
    00:00 -13°C° 0 mm 1 mps 719 mmHg 94%
    01:00 -14°C° 0 mm 1 mps 719 mmHg 93%
    02:00 -14°C° 0 mm 1 mps 719 mmHg 93%
    03:00 -14°C° 0 mm 1 mps 719 mmHg 92%
    04:00 -14°C° 0 mm 1 mps 719 mmHg 91%
    05:00 -14°C° 0 mm 1 mps 719 mmHg 91%
    06:00 -14°C° 0 mm 1 mps 720 mmHg 90%
    07:00 -14°C° 0 mm 1 mps 720 mmHg 90%
    08:00 -12°C° 0 mm 1 mps 720 mmHg 89%
    09:00 -11°C° 0 mm 1 mps 720 mmHg 89%
    10:00 -9°C° 0 mm 1 mps 720 mmHg 88%
    11:00 -8°C° 0 mm 1 mps 719 mmHg 86%
    12:00 -6°C° 0 mm 1 mps 718 mmHg 85%
    13:00 -4°C° 0 mm 0 mps 718 mmHg 83%
    14:00 -5°C° 0 mm 0 mps 718 mmHg 86%
    15:00 -7°C° 0 mm 1 mps 717 mmHg 88%
    16:00 -8°C° 0 mm 1 mps 717 mmHg 91%
    17:00 -8°C° 0 mm 1 mps 717 mmHg 89%
    18:00 -9°C° 0 mm 1 mps 717 mmHg 88%
    19:00 -9°C° 0 mm 1 mps 717 mmHg 87%
    20:00 -9°C° 0 mm 1 mps 718 mmHg 86%
    21:00 -9°C° 0 mm 1 mps 718 mmHg 86%
    22:00 -9°C° 0 mm 1 mps 718 mmHg 85%
    23:00 -9°C° 0 mm 1 mps 718 mmHg 85%
    Show more